FW1241 Weather Reports


Display with metric or nautical units.
time (UTC)temp
F
wind
direction
speed
MPH
gust
MPH
rain 1hr
in
rain 24hr
in
rain mn
in
humidity
%
barometer
mb
20220528042605 75 311 0.0 2.0 0.00 0.00 0.00 52 1010.6
20220528041105 76 309 0.0 2.0 0.00 0.00 0.00 50 1010.5
20220528040105 76 280 0.0 2.0 0.00 0.00 0.00 49 1010.6
20220528035605 76 298 1.0 3.0 0.00 0.00 0.00 48 1010.7
20220528035105 77 294 1.0 2.0 0.00 0.00 0.00 48 1010.6
20220528034605 77 299 1.0 3.0 0.00 0.00 0.00 47 1010.6
20220528034105 77 301 1.0 2.0 0.00 0.00 0.00 46 1010.6
20220528033105 78 289 1.0 2.0 0.00 0.00 0.00 44 1010.5
20220528032604 78 320 0.0 1.0 0.00 0.00 0.00 43 1010.4
20220528031104 78 290 0.0 1.0 0.00 0.00 0.00 44 1010.3
20220528030605 79 290 0.0 1.0 0.00 0.00 0.00 43 1010.3
20220528025605 79 310 0.0 1.0 0.00 0.00 0.00 42 1010.2
20220528024605 80 299 1.0 2.0 0.00 0.00 0.00 41 1010.1
20220528024105 80 282 1.0 2.0 0.00 0.00 0.00 40 1010.2
20220528022605 82 296 1.0 2.0 0.00 0.00 0.00 40 1010.1
20220528022105 82 302 1.0 2.0 0.00 0.00 0.00 40 1010.2
20220528020105 83 303 1.0 3.0 0.00 0.00 0.00 39 1010.3
20220528015604 83 299 1.0 3.0 0.00 0.00 0.00 38 1010.4
20220528013105 85 317 2.0 5.0 0.00 0.00 0.00 34 1010.5
20220528012605 85 308 2.0 6.0 0.00 0.00 0.00 34 1010.5
20220528012105 85 299 2.0 6.0 0.00 0.00 0.00 34 1010.5
20220528011605 85 309 3.0 7.0 0.00 0.00 0.00 34 1010.6
20220528005605 85 312 3.0 6.0 0.00 0.00 0.00 35 1010.7
20220528005105 85 282 2.0 6.0 0.00 0.00 0.00 35 1010.7
20220528003106 85 295 3.0 7.0 0.00 0.00 0.00 36 1011.0
20220528002605 86 327 3.0 7.0 0.00 0.00 0.00 36 1011.0
20220528002105 85 304 1.0 6.0 0.00 0.00 0.00 36 1010.9
20220528001605 85 299 2.0 6.0 0.00 0.00 0.00 38 1011.0
20220528001105 85 309 2.0 5.0 0.00 0.00 0.00 37 1011.0
20220528000605 85 312 2.0 6.0 0.00 0.00 0.00 37 1011.0
20220527234105 85 311 3.0 5.0 0.00 0.00 0.00 38 1011.2
20220527233605 85 301 3.0 5.0 0.00 0.00 0.00 38 1011.2
20220527233105 85 317 2.0 6.0 0.00 0.00 0.00 38 1011.2
20220527232604 85 309 1.0 5.0 0.00 0.00 0.00 38 1011.2
20220527232104 85 313 2.0 3.0 0.00 0.00 0.00 39 1011.2
20220527230105 85 306 2.0 7.0 0.00 0.00 0.00 37 1011.5
20220527225605 85 334 1.0 3.0 0.00 0.00 0.00 36 1011.5
20220527224605 85 330 2.0 3.0 0.00 0.00 0.00 36 1011.7
20220527224105 85 310 2.0 3.0 0.00 0.00 0.00 35 1011.7
20220527223605 85 274 2.0 5.0 0.00 0.00 0.00 38 1011.8
20220527222605 85 307 1.0 3.0 0.00 0.00 0.00 36 1011.9
20220527221605 84 311 0.0 3.0 0.00 0.00 0.00 34 1012.0
20220527220605 84 321 1.0 3.0 0.00 0.00 0.00 37 1012.2
20220527220105 83 315 1.0 6.0 0.00 0.00 0.00 36 1012.3
20220527215605 83 315 1.0 3.0 0.00 0.00 0.00 36 1012.3
20220527215105 83 324 3.0 6.0 0.00 0.00 0.00 35 1012.4
20220527214605 82 294 1.0 5.0 0.00 0.00 0.00 37 1012.3
20220527214105 83 307 1.0 3.0 0.00 0.00 0.00 38 1012.4
20220527213605 83 301 2.0 3.0 0.00 0.00 0.00 38 1012.4
20220527212605 82 305 3.0 6.0 0.00 0.00 0.00 38 1012.6
20220527212105 82 332 2.0 5.0 0.00 0.00 0.00 39 1012.7
20220527210605 83 320 2.0 5.0 0.00 0.00 0.00 39 1012.8
20220527210105 83 317 2.0 5.0 0.00 0.00 0.00 38 1012.8
20220527205105 83 307 2.0 5.0 0.00 0.00 0.00 38 1012.9
20220527203605 84 291 1.0 3.0 0.00 0.00 0.00 38 1013.1
20220527202605 84 295 1.0 3.0 0.00 0.00 0.00 39 1013.1
20220527202105 83 311 1.0 3.0 0.00 0.00 0.00 39 1013.2
20220527201605 83 306 2.0 5.0 0.00 0.00 0.00 38 1013.2
20220527201105 83 310 2.0 3.0 0.00 0.00 0.00 38 1013.3
20220527200605 83 334 1.0 2.0 0.00 0.00 0.00 41 1013.3
20220527195604 83 302 1.0 3.0 0.00 0.00 0.00 41 1013.4
20220527195105 83 170 1.0 3.0 0.00 0.00 0.00 45 1013.5
20220527194605 82 125 1.0 3.0 0.00 0.00 0.00 42 1013.5
20220527192105 82 281 0.0 3.0 0.00 0.00 0.00 47 1013.9
20220527191604 82 121 0.0 3.0 0.00 0.00 0.00 45 1013.9
20220527191105 81 252 1.0 3.0 0.00 0.00 0.00 45 1013.9
20220527190105 80 28 1.0 5.0 0.00 0.00 0.00 44 1014.1
20220527185605 81 330 1.0 3.0 0.00 0.00 0.00 46 1014.1
20220527185105 80 0 1.0 3.0 0.00 0.00 0.00 48 1014.1
20220527184105 79 309 0.0 1.0 0.00 0.00 0.00 49 1014.3
20220527183605 79 274 1.0 3.0 0.00 0.00 0.00 49 1014.3
20220527183105 79 330 1.0 3.0 0.00 0.00 0.00 49 1014.3
20220527182606 78 331 0.0 2.0 0.00 0.00 0.00 51 1014.4
20220527182105 78 303 1.0 3.0 0.00 0.00 0.00 52 1014.4
20220527181605 77 338 1.0 3.0 0.00 0.00 0.00 55 1014.4
20220527181104 77 313 1.0 3.0 0.00 0.00 0.00 55 1014.3
20220527180605 77 319 1.0 3.0 0.00 0.00 0.00 54 1014.4
20220527180105 77 302 0.0 3.0 0.00 0.00 0.00 53 1014.4
20220527175605 77 268 0.0 2.0 0.00 0.00 0.00 54 1014.4
20220527175105 78 319 1.0 3.0 0.00 0.00 0.00 53 1014.5
20220527174605 78 279 0.0 2.0 0.00 0.00 0.00 52 1014.5
20220527172605 76 82 1.0 3.0 0.00 0.00 0.00 55 1014.5
20220527172105 76 127 1.0 2.0 0.00 0.00 0.00 55 1014.5
20220527171605 76 318 1.0 2.0 0.00 0.00 0.00 55 1014.5
20220527171106 76 92 0.0 1.0 0.00 0.00 0.00 57 1014.4
20220527170605 76 347 1.0 3.0 0.00 0.00 0.00 55 1014.4
20220527170106 75 156 1.0 2.0 0.00 0.00 0.00 57 1014.4
20220527165106 75 310 1.0 3.0 0.00 0.00 0.00 56 1014.4
20220527164606 75 68 0.0 3.0 0.00 0.00 0.00 56 1014.4
20220527162605 74 101 0.0 3.0 0.00 0.00 0.00 57 1014.5
20220527161606 73 187 0.0 2.0 0.00 0.00 0.00 57 1014.5
20220527160605 72 180 0.0 3.0 0.00 0.00 0.00 58 1014.4
20220527155605 71 187 1.0 3.0 0.00 0.00 0.00 59 1014.4
20220527155105 71 187 0.0 2.0 0.00 0.00 0.00 58 1014.4
20220527154106 71 189 0.0 3.0 0.00 0.00 0.00 59 1014.4
20220527153606 71 127 1.0 3.0 0.00 0.00 0.00 60 1014.5
20220527152605 70 117 0.0 1.0 0.00 0.00 0.00 62 1014.6
20220527151606 70 123 0.0 1.0 0.00 0.00 0.00 63 1014.6
20220527151106 69 65 0.0 1.0 0.00 0.00 0.00 65 1014.6
20220527150606 68 58 0.0 1.0 0.00 0.00 0.00 65 1014.6
20220527150105 67 125 0.0 1.0 0.00 0.00 0.00 67 1014.6
20220527145607 67 305 0.0 0.0 0.00 0.00 0.00 67 1014.6
20220527145105 66 305 0.0 0.0 0.00 0.00 0.00 68 1014.6
20220527144605 67 305 1.0 2.0 0.00 0.00 0.00 67 1014.6
20220527143605 67 305 0.0 0.0 0.00 0.00 0.00 68 1014.6
20220527143105 66 305 0.0 0.0 0.00 0.00 0.00 68 1014.4
20220527142605 66 315 0.0 2.0 0.00 0.00 0.00 67 1014.4
20220527141605 66 236 0.0 1.0 0.00 0.00 0.00 68 1014.3
20220527141105 65 162 0.0 0.0 0.00 0.00 0.00 69 1014.3
20220527140605 64 162 0.0 0.0 0.00 0.00 0.00 70 1014.2
20220527135605 62 131 0.0 0.0 0.00 0.00 0.00 74 1014.0
20220527134606 60 131 0.0 0.0 0.00 0.00 0.00 78 1013.8
20220527134105 60 166 0.0 0.0 0.00 0.00 0.00 78 1013.6
20220527133605 60 166 0.0 0.0 0.00 0.00 0.00 78 1013.5
20220527133105 60 166 0.0 0.0 0.00 0.00 0.00 77 1013.5
20220527132606 59 165 0.0 0.0 0.00 0.00 0.00 78 1013.3
20220527132105 59 160 0.0 0.0 0.00 0.00 0.00 78 1013.2
20220527131605 59 160 0.0 0.0 0.00 0.00 0.00 78 1013.0
20220527131105 59 160 0.0 0.0 0.00 0.00 0.00 78 1012.9
20220527130605 59 160 0.0 0.0 0.00 0.00 0.00 78 1012.8
20220527125605 60 175 0.0 1.0 0.00 0.00 0.00 77 1012.7
20220527125105 60 174 0.0 1.0 0.00 0.00 0.00 76 1012.6
20220527124105 60 136 0.0 1.0 0.00 0.00 0.00 77 1012.6
20220527122605 60 163 0.0 1.0 0.00 0.00 0.00 78 1012.5
20220527121605 60 130 0.0 1.0 0.00 0.00 0.00 79 1012.4
20220527121105 60 155 0.0 0.0 0.00 0.00 0.00 79 1012.4
20220527120105 61 117 0.0 0.0 0.00 0.00 0.00 79 1012.3
20220527115605 61 117 0.0 0.0 0.00 0.00 0.00 79 1012.3
20220527115105 61 117 0.0 1.0 0.00 0.00 0.00 78 1012.3
20220527114105 61 115 0.0 0.0 0.00 0.00 0.00 77 1012.2
20220527113605 61 116 0.0 1.0 0.00 0.00 0.00 78 1012.1
20220527113106 62 120 0.0 1.0 0.00 0.00 0.00 78 1012.1
20220527112605 62 120 0.0 1.0 0.00 0.00 0.00 78 1012.1
20220527112105 62 117 0.0 1.0 0.00 0.00 0.00 79 1012.0
20220527111605 62 112 0.0 0.0 0.00 0.00 0.00 79 1012.0
20220527110605 62 110 0.0 1.0 0.00 0.00 0.00 79 1011.9
20220527110106 63 105 0.0 0.0 0.00 0.00 0.00 79 1011.9
20220527105605 63 105 0.0 1.0 0.00 0.00 0.00 79 1011.8
20220527105105 63 281 0.0 0.0 0.00 0.00 0.00 79 1011.8
20220527104605 63 281 0.0 0.0 0.00 0.00 0.00 79 1011.9
20220527104105 63 281 0.0 0.0 0.00 0.00 0.00 79 1011.9
20220527103605 63 281 0.0 0.0 0.00 0.00 0.00 78 1011.8
20220527103105 63 281 0.0 0.0 0.00 0.00 0.00 78 1011.7
20220527102606 63 281 0.0 0.0 0.00 0.00 0.00 78 1011.8
20220527101605 63 281 0.0 0.0 0.00 0.00 0.00 77 1011.8
20220527101105 64 281 0.0 0.0 0.00 0.00 0.00 77 1011.8
20220527100605 64 281 0.0 1.0 0.00 0.00 0.00 76 1011.9
20220527100105 64 284 0.0 0.0 0.00 0.00 0.00 76 1011.8
20220527095605 64 284 0.0 0.0 0.00 0.00 0.00 75 1011.8
20220527095105 65 284 0.0 0.0 0.00 0.00 0.00 75 1011.8
20220527093105 65 284 0.0 0.0 0.00 0.00 0.00 74 1011.8
20220527092106 65 281 0.0 0.0 0.00 0.00 0.00 74 1011.6
20220527091605 65 281 0.0 0.0 0.00 0.00 0.00 74 1011.6
20220527090105 66 281 0.0 0.0 0.00 0.00 0.00 73 1011.6
20220527085105 66 281 0.0 0.0 0.00 0.00 0.00 74 1011.5
20220527084605 66 281 0.0 0.0 0.00 0.00 0.00 73 1011.6
20220527083605 67 281 0.0 0.0 0.00 0.00 0.00 72 1011.6
20220527083105 67 281 0.0 0.0 0.00 0.00 0.00 72 1011.5
20220527082106 67 212 0.0 0.0 0.00 0.00 0.00 72 1011.5
20220527081605 67 212 0.0 0.0 0.00 0.00 0.00 71 1011.5
20220527081105 68 212 0.0 0.0 0.00 0.00 0.00 71 1011.6
20220527080606 68 212 0.0 0.0 0.00 0.00 0.00 71 1011.6
20220527075105 68 212 0.0 1.0 0.00 0.00 0.00 69 1011.5
20220527074605 68 212 0.0 1.0 0.00 0.00 0.00 69 1011.5
20220527073605 68 212 0.0 0.0 0.00 0.00 0.00 68 1011.4
20220527073105 69 212 0.0 0.0 0.00 0.00 0.00 68 1011.4
20220527072606 69 212 0.0 1.0 0.00 0.00 0.00 68 1011.3
20220527071605 70 212 0.0 0.0 0.00 0.00 0.00 66 1011.1
20220527070606 70 212 0.0 0.0 0.00 0.00 0.00 65 1010.9
20220527065604 71 225 0.0 1.0 0.00 0.00 0.00 62 1010.8
20220527064604 72 250 0.0 0.0 0.00 0.00 0.00 59 1010.8
20220527064104 73 250 0.0 0.0 0.00 0.00 0.00 57 1010.9
20220527063605 73 250 0.0 0.0 0.00 0.00 0.00 55 1010.8
20220527063104 74 250 0.0 0.0 0.00 0.00 0.00 54 1010.7
20220527062105 75 250 0.0 0.0 0.00 0.00 0.00 53 1010.7
20220527061604 75 250 0.0 0.0 0.00 0.00 0.00 53 1010.6
20220527060605 75 250 0.0 0.0 0.00 0.00 0.00 52 1010.4
20220527060105 76 250 0.0 0.0 0.00 0.00 0.00 52 1010.4
20220527055104 77 250 0.0 0.0 0.00 0.00 0.00 50 1010.2
20220527054604 77 250 0.0 1.0 0.00 0.00 0.00 51 1010.1
20220527054104 77 250 0.0 0.0 0.00 0.00 0.00 50 1010.1
20220527053105 78 281 0.0 1.0 0.00 0.00 0.00 50 1010.0
20220527051604 79 302 1.0 3.0 0.00 0.00 0.00 50 1009.8
20220527051105 79 295 2.0 3.0 0.00 0.00 0.00 50 1009.8
20220527045604 80 302 1.0 3.0 0.00 0.00 0.00 49 1009.7
20220527045104 80 310 2.0 3.0 0.00 0.00 0.00 48 1009.6
20220527044604 80 324 2.0 3.0 0.00 0.00 0.00 49 1009.5
20220527044105 81 298 1.0 3.0 0.00 0.00 0.00 49 1009.3
20220527043604 81 312 1.0 2.0 0.00 0.00 0.00 49 1009.3